Lid_Strength_Index
6 6 6 5 4 4 7 12 15 7 6 13 14 15 10 7 9 8 8 9 9 12 12 14 13 14 12 10 9 12 10 12 15 13 10 10 11 13 12 17 18 16 17 16
7 6 6 5 5 4 9 14 13 8 9 19 16 12 10 9 10 10 10 10 9 10 12 14 12 13 11 11 10 12 10 13 16 15 13 11 13 12 11 12 14 16 18 17
6 6 6 5 5 4 10 14 19 15 13 13 14 13 13 12 8 9 9 9 9 11 13 12 14 15 12 11 10 8 9 12 15 17 15 12 14 12 11 12 16 16 15 13
6 6 6 6 5 4 11 15 18 15 19 14 13 11 11 12 11 8 8 10 11 12 14 13 16 15 14 12 10 12 11 15 13 12 11 10 11 12 12 12 12 15 13 12
7 6 6 6 5 5 11 16 16 14 14 12 13 11 11 11 9 8 10 11 10 10 13 13 15 15 15 15 12 13 12 14 13 15 10 10 12 11 12 12 11 12 12 12
7 6 6 6 5 7 12 11 11 14 13 13 12 11 9 9 8 7 7 8 10 11 11 10 10 11 12 13 15 15 14 14 15 16 12 12 15 12 11 11 10 12 13 11
7 6 6 6 5 6 11 11 12 16 16 12 11 8 7 8 8 9 7 6 9 7 6 8 9 10 11 12 13 12 14 14 14 16 14 20 12 9 9 11 10 10 10 9
7 7 6 6 5 4 10 10 11 15 13 10 9 8 8 7 7 8 7 6 5 6 9 13 13 14 13 13 11 12 12 13 16 17 17 13 12 11 12 13 12 9 10 9
7 7 6 6 5 4 8 9 6 7 10 12 7 8 7 10 9 9 7 5 4 7 10 13 18 17 13 14 12 9 10 11 16 16 19 19 14 12 10 9 15 10 9 9
7 7 6 6 5 4 7 8 7 7 8 8 7 8 8 7 8 9 8 7 8 7 11 16 17 15 11 15 15 14 14 15 15 16 18 15 13 11 9 16 14 10 10 10
7 7 7 6 5 4 4 7 6 5 6 6 5 4 7 7 8 10 7 10 8 9 12 14 14 14 12 13 13 15 14 15 16 15 18 20 11 10 13 13 11 10 10 10
7 7 6 6 5 4 3 6 4 1 4 6 3 3 3 3 4 7 9 10 8 11 11 12 12 14 13 13 17 11 16 12 14 13 15 10 9 10 9 9 10 10 9 9
7 6 6 5 4 3 3 5 6 2 5 6 7 6 3 1 3 2 9 8 6 8 7 11 11 14 12 15 15 13 11 10 13 11 11 10 9 9 8 8 8 8 8 8
6 6 6 5 4 3 2 5 3 4 6 9 8 3 5 2 2 3 4 5 5 6 8 11 13 14 10 14 13 12 11 10 12 12 11 10 9 8 8 7 7 8 7 7
6 6 6 5 4 3 4 4 4 2 6 11 9 5 4 2 2 3 3 4 6 9 13 13 13 11 11 11 11 11 9 11 14 15 11 11 10 8 7 8 8 8 7 7
6 6 5 4 4 3 7 10 3 1 4 6 11 7 5 4 3 4 5 5 7 8 11 12 11 8 10 13 13 9 7 8 8 10 8 9 8 7 8 8 8 7 7 7
6 6 5 4 3 4 7 8 3 1 3 7 10 10 6 3 4 6 6 5 7 8 12 13 11 10 10 13 12 9 7 7 8 7 8 11 9 10 7 8 8 8 6 7
6 5 4 4 2 3 6 3 2 2 7 6 10 11 9 5 9 10 7 10 9 9 10 9 10 9 11 14 8 6 6 6 6 7 8 9 7 7 8 9 9 9 8 9
6 5 4 6 8 8 6 2 2 2 5 13 11 13 16 6 8 9 9 9 12 7 9 9 8 10 11 8 8 7 6 7 7 6 7 7 7 7 9 9 10 10 8 8
5 6 12 13 11 2 3 7 10 7 12 6 10 9 12 9 10 10 12 12 12 12 9 7 9 10 6 6 6 5 6 6 6 8 9 7 7 9 9 9 9 9 9 9
10 11 10 7 3 8 11 15 16 15 14 11 9 9 10 7 11 11 12 14 11 14 10 10 11 12 9 6 6 5 5 5 5 5 5 6 6 8 8 9 9 9 9 9
8 8 5 7 12 14 15 18 13 11 12 10 9 9 9 8 8 10 10 12 11 13 9 11 12 10 7 6 6 5 5 5 4 4 5 5 6 7 7 8 9 9 9 8
7 9 11 13 13 21 17 22 14 15 11 10 9 10 8 8 8 10 11 11 13 10 12 13 10 7 6 5 6 5 5 5 5 5 4 4 5 6 7 8 8 8 8 9
11 13 21 16 19 14 13 12 12 10 9 10 10 10 10 11 10 10 11 10 10 14 14 12 9 7 5 5 5 6 6 6 5 5 5 6 7 7 7 8 8 10 10 10
11 12 15 13 11 11 11 10 10 9 9 10 10 10 10 10 11 10 10 13 15 11 12 10 8 5 5 5 5 5 6 6 5 4 5 6 6 6 7 7 8 8 10 10
10 11 12 11 12 13 12 10 10 9 9 9 10 12 14 12 10 11 13 12 13 11 10 9 6 5 5 5 5 5 5 5 5 5 4 5 5 6 5 5 6 9 10 11
11 13 12 11 11 12 10 9 9 8 9 11 11 14 13 12 13 11 10 12 10 10 10 8 6 6 5 5 4 4 4 4 5 5 5 4 4 4 4 5 5 6 7 9